| time (UTC) | temp F | wind direction | speed MPH | gust MPH | rain 1hr in | rain 24hr in | rain mn in | humidity % | barometer mb |
| 20260906163044 | 76 | 147 | 6.0 | 9.0 | 0.00 | 0.01 | 0.01 | 64 | 990.3 |
| 20260906161542 | 76 | 143 | 2.0 | 5.0 | 0.00 | 0.01 | 0.01 | 65 | 990.5 |
| 20260906160037 | 75 | 281 | 2.0 | 8.0 | 0.00 | 0.01 | 0.01 | 66 | 990.5 |
| 20260906154535 | 74 | 129 | 3.0 | 8.0 | 0.00 | 0.01 | 0.01 | 67 | 990.3 |
| 20260906153031 | 74 | 121 | 2.0 | 5.0 | 0.00 | 0.01 | 0.01 | 67 | 990.4 |
| 20260906151532 | 73 | 134 | 0.0 | 5.0 | 0.00 | 0.01 | 0.01 | 69 | 990.2 |
| 20260906150032 | 72 | 128 | 3.0 | 8.0 | 0.00 | 0.01 | 0.01 | 69 | 990.1 |
| 20260906144521 | 71 | 206 | 0.0 | 3.0 | 0.00 | 0.01 | 0.01 | 74 | 990.1 |
| 20260906143018 | 70 | 179 | 3.0 | 5.0 | 0.00 | 0.01 | 0.01 | 74 | 990.1 |
| 20260906141514 | 69 | 148 | 1.0 | 5.0 | 0.00 | 0.01 | 0.01 | 79 | 990.1 |
| 20260906140047 | 67 | 131 | 0.0 | 2.0 | 0.00 | 0.01 | 0.01 | 84 | 990.2 |
| 20260906134536 | 66 | 110 | 1.0 | 3.0 | 0.00 | 0.01 | 0.01 | 85 | 990.1 |
| 20260906133033 | 66 | 109 | 0.0 | 1.0 | 0.00 | 0.01 | 0.01 | 86 | 990.3 |
| 20260906131534 | 65 | 109 | 0.0 | 1.0 | 0.00 | 0.01 | 0.01 | 86 | 990.2 |
| 20260906130023 | 64 | 109 | 0.0 | 0.0 | 0.00 | 0.01 | 0.01 | 86 | 990.2 |
| 20260906124521 | 64 | 109 | 0.0 | 0.0 | 0.00 | 0.01 | 0.01 | 86 | 990.1 |
| 20260906123019 | 63 | 109 | 0.0 | 0.0 | 0.00 | 0.01 | 0.01 | 86 | 990.0 |
| 20260906121517 | 63 | 109 | 0.0 | 0.0 | 0.00 | 0.01 | 0.01 | 86 | 989.8 |
| 20260906120021 | 63 | 109 | 0.0 | 2.0 | 0.01 | 0.01 | 0.01 | 86 | 989.7 |
| 20260906114522 | 63 | 109 | 0.0 | 1.0 | 0.01 | 0.01 | 0.01 | 86 | 989.4 |
| 20260906113010 | 64 | 110 | 0.0 | 2.0 | 0.01 | 0.02 | 0.01 | 86 | 989.1 |
| 20260906111510 | 64 | 110 | 0.0 | 0.0 | 0.01 | 0.02 | 0.01 | 86 | 989.3 |
| 20260906110008 | 63 | 110 | 0.0 | 0.0 | 0.00 | 0.01 | 0.00 | 86 | 989.2 |
| 20260906104508 | 63 | 111 | 0.0 | 1.0 | 0.00 | 0.01 | 0.00 | 86 | 989.3 |
| 20260906103010 | 63 | 112 | 0.0 | 0.0 | 0.00 | 0.01 | 0.00 | 86 | 989.1 |
| 20260906101506 | 63 | 112 | 0.0 | 0.0 | 0.00 | 0.01 | 0.00 | 86 | 988.7 |
| 20260906100004 | 63 | 112 | 0.0 | 0.0 | 0.00 | 0.01 | 0.00 | 86 | 988.6 |
| 20260906094503 | 63 | 112 | 0.0 | 0.0 | 0.00 | 0.01 | 0.00 | 86 | 988.6 |
| 20260906093117 | 63 | 112 | 0.0 | 0.0 | 0.00 | 0.01 | 0.00 | 86 | 988.5 |
| 20260906091600 | 63 | 112 | 0.0 | 0.0 | 0.00 | 0.01 | 0.00 | 85 | 988.6 |
| 20260906090135 | 63 | 112 | 0.0 | 0.0 | 0.00 | 0.01 | 0.00 | 85 | 988.7 |
| 20260906084603 | 63 | 112 | 0.0 | 0.0 | 0.00 | 0.01 | 0.00 | 85 | 988.9 |
| 20260906083055 | 63 | 112 | 0.0 | 0.0 | 0.00 | 0.01 | 0.00 | 85 | 989.0 |
| 20260906081551 | 63 | 112 | 0.0 | 0.0 | 0.00 | 0.01 | 0.00 | 85 | 988.9 |
| 20260906074554 | 63 | 112 | 0.0 | 0.0 | 0.00 | 0.01 | 0.00 | 85 | 989.0 |
| 20260906073048 | 64 | 112 | 0.0 | 0.0 | 0.00 | 0.01 | 0.00 | 85 | 989.0 |
| 20260906071517 | 64 | 112 | 0.0 | 0.0 | 0.00 | 0.01 | 0.00 | 85 | 989.1 |
| 20260906070017 | 64 | 112 | 0.0 | 0.0 | 0.00 | 0.01 | 0.00 | 85 | 989.1 |
| 20260906064513 | 64 | 112 | 0.0 | 0.0 | 0.00 | 0.01 | 0.00 | 85 | 989.2 |
| 20260906063013 | 64 | 112 | 0.0 | 3.0 | 0.00 | 0.01 | 0.01 | 85 | 989.2 |
| 20260906061512 | 64 | 117 | 0.0 | 0.0 | 0.00 | 0.01 | 0.01 | 83 | 989.1 |
| 20260906060010 | 64 | 117 | 0.0 | 0.0 | 0.00 | 0.01 | 0.01 | 83 | 989.0 |
| 20260906054506 | 64 | 117 | 0.0 | 0.0 | 0.00 | 0.01 | 0.01 | 83 | 988.9 |
| 20260906053005 | 65 | 117 | 0.0 | 0.0 | 0.00 | 0.01 | 0.01 | 83 | 988.6 |
| 20260906051504 | 65 | 117 | 0.0 | 0.0 | 0.00 | 0.01 | 0.01 | 82 | 988.9 |
| 20260906050004 | 65 | 117 | 0.0 | 0.0 | 0.00 | 0.01 | 0.01 | 82 | 988.9 |
| 20260906044613 | 65 | 117 | 0.0 | 0.0 | 0.00 | 0.01 | 0.01 | 82 | 989.0 |
| 20260906043101 | 66 | 117 | 0.0 | 0.0 | 0.00 | 0.01 | 0.01 | 81 | 989.0 |
| 20260906041557 | 66 | 117 | 0.0 | 0.0 | 0.00 | 0.01 | 0.01 | 80 | 988.9 |
| 20260906040052 | 67 | 117 | 0.0 | 0.0 | 0.00 | 0.01 | 0.01 | 80 | 988.7 |
| 20260906034549 | 67 | 117 | 0.0 | 0.0 | 0.00 | 0.01 | 0.01 | 80 | 988.3 |
| 20260906033047 | 68 | 117 | 0.0 | 0.0 | 0.00 | 0.01 | 0.01 | 79 | 988.0 |
| 20260906031545 | 69 | 117 | 0.0 | 0.0 | 0.00 | 0.01 | 0.01 | 79 | 987.7 |
| 20260906030050 | 69 | 117 | 0.0 | 0.0 | 0.00 | 0.01 | 0.01 | 79 | 987.7 |
| 20260906024514 | 70 | 117 | 0.0 | 0.0 | 0.00 | 0.01 | 0.01 | 79 | 987.7 |
| 20260906023014 | 70 | 117 | 0.0 | 0.0 | 0.00 | 0.01 | 0.01 | 79 | 987.4 |
| 20260906021510 | 71 | 113 | 0.0 | 1.0 | 0.00 | 0.01 | 0.01 | 78 | 987.0 |
| 20260906020010 | 71 | 116 | 0.0 | 3.0 | 0.00 | 0.01 | 0.01 | 78 | 987.0 |
| 20260906014525 | 72 | 103 | 0.0 | 1.0 | 0.00 | 0.01 | 0.01 | 78 | 986.8 |
| 20260906013019 | 72 | 104 | 0.0 | 2.0 | 0.00 | 0.01 | 0.01 | 78 | 986.4 |
| 20260906011507 | 72 | 109 | 0.0 | 1.0 | 0.00 | 0.01 | 0.01 | 77 | 986.1 |
| 20260906010020 | 73 | 110 | 0.0 | 7.0 | 0.00 | 0.01 | 0.01 | 77 | 986.0 |
| 20260906004506 | 73 | 98 | 0.0 | 4.0 | 0.00 | 0.01 | 0.01 | 77 | 985.9 |
| 20260906003006 | 73 | 76 | 0.0 | 3.0 | 0.00 | 0.01 | 0.01 | 77 | 985.7 |
| 20260906001555 | 74 | 90 | 0.0 | 2.0 | 0.00 | 0.01 | 0.01 | 78 | 985.9 |
| 20260906000035 | 74 | 90 | 0.0 | 3.0 | 0.00 | 0.01 | 0.01 | 78 | 985.9 |
| 20260905234533 | 75 | 103 | 0.0 | 1.0 | 0.00 | 0.01 | 0.01 | 77 | 986.1 |
| 20260905233033 | 75 | 103 | 2.0 | 3.0 | 0.00 | 0.01 | 0.01 | 76 | 986.2 |
| 20260905231540 | 76 | 113 | 0.0 | 2.0 | 0.00 | 0.01 | 0.01 | 74 | 986.4 |
| 20260905230036 | 77 | 113 | 0.0 | 1.0 | 0.00 | 0.01 | 0.01 | 74 | 986.4 |
| 20260905224540 | 77 | 101 | 0.0 | 2.0 | 0.00 | 0.01 | 0.01 | 72 | 986.3 |
| 20260905223036 | 78 | 101 | 0.0 | 3.0 | 0.00 | 0.01 | 0.01 | 70 | 986.2 |
| 20260905221525 | 78 | 82 | 1.0 | 6.0 | 0.00 | 0.01 | 0.01 | 68 | 986.3 |
| 20260905220027 | 79 | 111 | 2.0 | 7.0 | 0.00 | 0.01 | 0.01 | 66 | 986.4 |
| 20260905214520 | 79 | 30 | 1.0 | 3.0 | 0.00 | 0.01 | 0.01 | 69 | 986.6 |
| 20260905213021 | 79 | 49 | 0.0 | 4.0 | 0.00 | 0.01 | 0.01 | 68 | 986.6 |
| 20260905211535 | 79 | 53 | 1.0 | 4.0 | 0.00 | 0.01 | 0.01 | 69 | 986.7 |
| 20260905210016 | 79 | 55 | 0.0 | 4.0 | 0.00 | 0.01 | 0.01 | 70 | 986.6 |
| 20260905204522 | 78 | 94 | 1.0 | 3.0 | 0.00 | 0.01 | 0.01 | 70 | 986.5 |
| 20260905203010 | 78 | 234 | 0.0 | 4.0 | 0.00 | 0.01 | 0.01 | 71 | 986.7 |
| 20260905201509 | 78 | 5 | 1.0 | 3.0 | 0.00 | 0.01 | 0.01 | 73 | 986.7 |
| 20260905200009 | 78 | 139 | 1.0 | 5.0 | 0.00 | 0.01 | 0.01 | 72 | 987.1 |
| 20260905194506 | 77 | 304 | 1.0 | 3.0 | 0.00 | 0.01 | 0.01 | 73 | 986.9 |
| 20260905193008 | 77 | 111 | 0.0 | 6.0 | 0.00 | 0.01 | 0.01 | 73 | 987.0 |
| 20260905191509 | 76 | 123 | 3.0 | 7.0 | 0.00 | 0.01 | 0.01 | 74 | 987.0 |
| 20260905190005 | 76 | 109 | 3.0 | 8.0 | 0.00 | 0.01 | 0.01 | 75 | 987.0 |
| 20260905184504 | 76 | 142 | 4.0 | 8.0 | 0.00 | 0.01 | 0.01 | 74 | 987.1 |
| 20260905183000 | 77 | 111 | 3.0 | 8.0 | 0.00 | 0.01 | 0.01 | 75 | 987.2 |
| 20260905181602 | 77 | 117 | 6.0 | 10.0 | 0.00 | 0.01 | 0.01 | 74 | 987.3 |
| 20260905180103 | 77 | 131 | 6.0 | 10.0 | 0.00 | 0.01 | 0.01 | 75 | 987.3 |
| 20260905174558 | 76 | 110 | 4.0 | 8.0 | 0.00 | 0.01 | 0.01 | 75 | 987.4 |
| 20260905173029 | 76 | 99 | 3.0 | 9.0 | 0.00 | 0.01 | 0.01 | 75 | 987.5 |
| 20260905171527 | 77 | 144 | 2.0 | 7.0 | 0.00 | 0.01 | 0.01 | 75 | 987.5 |
| 20260905170022 | 77 | 130 | 1.0 | 7.0 | 0.00 | 0.01 | 0.01 | 75 | 987.4 |
| 20260905164522 | 77 | 53 | 3.0 | 7.0 | 0.00 | 0.01 | 0.01 | 76 | 987.1 |